Location: Brahman Valley
(40.6513°N, 111.8855°W)
Time: 12:22:37
(UTC+00:00)

S-56A Canister/Altair - Visible Passes

Search period start: 13 May 2021 00:00
Search period end: 23 May 2021 00:00
Orbit: 631 x 2501 km, 38.9° (Epoch: 12 May)

Date Brightness Start Highest point End Pass type
(mag) Time Alt. Az. Time Alt. Az. Time Alt. Az.
13 May 9.6 03:27:11 10° W 03:41:28 71° SSW 03:50:24 15° ESE visible
13 May 9.7 05:35:10 10° W 05:45:47 34° SW 05:47:50 32° SSW visible
14 May 9.8 02:53:23 10° W 03:08:08 75° SSW 03:18:56 10° ESE visible
14 May 9.7 05:01:11 10° WNW 05:12:54 40° SW 05:16:44 30° S visible
15 May 9.9 04:27:16 10° WNW 04:39:55 45° SW 04:45:39 25° SSE visible
15 May 10.7 06:38:30 10° WSW 06:42:37 13° WSW 06:43:04 13° SW visible
16 May 10.0 03:53:23 10° WNW 04:06:51 51° SSW 04:14:36 19° SSE visible
16 May 10.6 06:03:18 10° W 06:09:57 17° SW 06:12:02 16° SW visible
17 May 10.0 03:19:33 10° WNW 03:33:39 56° SSW 03:43:35 13° SE visible
17 May 10.5 05:28:42 10° W 05:37:13 21° SW 05:41:00 17° SSW visible
18 May 10.4 04:54:20 10° W 05:04:23 25° SW 05:10:01 17° S visible
19 May 10.5 04:20:09 10° W 04:31:27 30° SW 04:39:04 14° S visible
20 May 10.6 03:46:07 10° W 03:58:26 35° SW 04:08:09 10° SSE visible
21 May 10.6 03:12:11 10° WNW 03:25:19 39° SW 03:35:56 10° SSE visible
21 May 11.2 05:27:28 10° WSW 05:28:14 10° WSW 05:29:00 10° SW visible
22 May 11.1 04:49:47 10° W 04:55:26 14° WSW 05:00:34 10° SSW visible
